Regional Weather Roundup
Issued by NWS

Home | Current Version | Previous Version | Graphics & Text | Print | Product List | Glossary On
Versions: 1 2 3 4 5 6 7 8 9 10 11 12 13 14 15 16 17 18 19 20 21 22 23 24 25 26 27 28 29 30 31 32 33 34 35 36 37 38 39 40 41 42 43 44 45 46 47 48 49 50
540
ASUS43 KMPX 271101
RWRMN
WEATHER ROUNDUP FOR MINNESOTA
NATIONAL WEATHER SERVICE TWIN CITIES/CHANHASSEN MN
600 AM CDT THU APR 27 2017


NOTE: "FAIR" INDICATES FEW OR NO CLOUDS BELOW 12,000 FEET WITH NO
SIGNIFICANT WEATHER AND/OR OBSTRUCTIONS TO VISIBILITY. N/A MEANS
CURRENT SKY AND/OR WEATHER CONDITIONS ARE NOT AVAILABLE.

MNZ060>063-068>070-271200-
   Twin Cities Metro

CITY           SKY/WX    TMP DP  RH WIND       PRES   REMARKS
TWIN CITIES    CLOUDY    34  30  85 N10       29.52F FOG     WCI  26
ST PAUL        LGT SNOW  33  32  96 N9        29.53S FOG     WCI  25
CRYSTAL        CLOUDY    33  29  85 NW7       29.52S WCI  27
LAKEVILLE      LGT SNOW  32  32 100 NW8       29.52S WCI  25
EDEN PRAIRIE   CLOUDY    34  31  88 NW12      29.52S WCI  25
SOUTH ST PAUL  CLOUDY    35  33  92 N8        29.52S WCI  28
LAKE ELMO      CLOUDY    32  32 100 N7        29.52S WCI  26
$$
MNZ001>005-007-008-013>017-022>024-027-028-271200-
   Northwest Minnesota

CITY           SKY/WX    TMP DP  RH WIND       PRES   REMARKS
BEMIDJI        CLOUDY    21  17  82 N8        29.63S WCI  12
HALLOCK        CLEAR     25  21  86 N3        29.74F
ROSEAU         LGT SNOW  25  19  80 N6        29.71F WCI  18
WARROAD        LGT SNOW  25  21  86 N10       29.70F WCI  15
THIEF RVR FALL FLURRIES  23  20  88 N12       29.69F WCI  12
CROOKSTON      CLOUDY    27  23  86 N9        29.71F WCI  17
FOSSTON        CLOUDY    21  18  86 N13       29.66S WCI   9
DETROIT LAKES  CLOUDY    27  23  86 N5        29.63S WCI  21
MOORHEAD       LGT RAIN  25  23  93 N7        29.68F WCI  17
PARK RAPIDS    FLURRIES  24  17  74 N12       29.60S WCI  13
MAHNOMEN       CLOUDY    23  19  85 N5        29.64S WCI  17
$$
MNZ006-009>011-018-025>026-271200-
   North Central Minnesota

CITY           SKY/WX    TMP DP  RH WIND       PRES   REMARKS
BAUDETTE       FLURRIES  23  15  71 NE9       29.66S WCI  13
FLAG ISLAND    LGT SNOW  25  21  86 NE15      29.69F WCI  12
INTL FALLS     CLOUDY    21  13  71 NE13      29.63F WCI   9
WASKISH        CLOUDY    21  19  93 N7        29.65S WCI  13
BIG FORK       CLOUDY    21  18  86 N6        29.61S WCI  14
LONGVILLE      CLOUDY    23  19  86 N5        29.60S WCI  17
GRAND RAPIDS   CLOUDY    22  18  85 N10       29.59F WCI  11
CRANE LAKE     CLOUDY    19  16  86 N6        29.62F WCI  11
ORR            MIX PCPN  19  14  79 NW5       29.57F WCI  13
COOK           CLOUDY    19  16  86 N3        29.58F
WALKER         CLOUDY    22  17  82 N7        29.61S WCI  14
$$
MNZ012-019>021-037-271200-
   Northeast Minnesota

CITY           SKY/WX    TMP DP  RH WIND       PRES   REMARKS
DULUTH         FRZ DRZL  23  21  92 N9        29.52F WCI  13
ELY            CLOUDY    19  16  86 N5        29.55S WCI  13
HIBBING        CLOUDY    20  18  92 N10       29.56F WCI   9
EVELETH        CLOUDY    22  18  84 N5        29.57S WCI  16
DULUTH HARBOR  CLOUDY    28  25  86 N10       29.57F WCI  19
TWO HARBORS    CLOUDY    27  19  74 N6        29.53F WCI  20
SILVER BAY     CLOUDY    23  19  86 N3        29.53F
GRAND MARAIS     N/A     23  18  81 MISG      29.55F
G MARAIS ARPRT CLOUDY    16  12  86 N3        29.49S
$$
MNZ029>031-032-039>041-046>048-054>057-064-271200-
   West Central Minnesota

CITY           SKY/WX    TMP DP  RH WIND       PRES   REMARKS
FERGUS FALLS   CLOUDY    27  21  80 N10G17    29.63S WCI  17
WHEATON        CLOUDY    27  25  93 NW13G20   29.67R WCI  16
MORRIS         CLOUDY    28  27  93 NW14      29.61R WCI  17
ALEXANDRIA     CLOUDY    28  23  81 N10       29.59S WCI  19
ELBOW LAKE     CLOUDY    28  25  87 N12       29.62R WCI  18
WADENA         CLOUDY    23  21  93 N8        29.59S WCI  14
GLENWOOD       CLOUDY    28  25  86 N9        29.58S WCI  20
APPLETON       CLOUDY    30  25  80 NW14      29.62S WCI  20
BENSON         CLOUDY    30  27  86 N9        29.61S WCI  22
ORTONVILLE     CLOUDY    28  23  80 N15       29.63S WCI  17
MADISON        CLOUDY    30  27  86 N20       29.63S WCI  18
WILLMAR        CLOUDY    32  28  86 N8        29.58F WCI  25
$$
MNZ033>034-036-042>043-049>051-058-059-271200-
   Central Minnesota

CITY           SKY/WX    TMP DP  RH WIND       PRES   REMARKS
ST CLOUD       CLOUDY    30  28  92 N12       29.54F WCI  20
SAUK CENTRE    CLOUDY    28  24  87 N8        29.57F WCI  19
PAYNESVILLE    CLOUDY    30  30 100 N8        29.57F WCI  22
AITKIN         CLOUDY    27  19  74 N5        29.55F WCI  21
PINE RIVER     CLOUDY    25  19  80 N6        29.63F WCI  18
BRAINERD       LGT SNOW  26  23  88 N7        29.56F FOG     WCI  18
STAPLES        CLOUDY    25  23  93 N8        29.59S WCI  16
LONG PRAIRIE   CLOUDY    27  25  93 CALM      29.57F
LITTLE FALLS   CLOUDY    28  25  86 CALM      29.57F
LITCHFIELD     CLOUDY    30  30 100 NW8       29.56F WCI  23
BUFFALO        CLOUDY    32  29  92 NW8       29.55F WCI  24
MAPLE LAKE     CLOUDY    32  31  96 NW10      29.55F WCI  24
HUTCHINSON     CLOUDY    32  31  94 NW10      29.56S WCI  24
$$
MNZ037-044-045-052-053-271200-
   East Central Minnesota

CITY           SKY/WX    TMP DP  RH WIND       PRES   REMARKS
PRINCETON      CLOUDY    30  28  93 N7        29.54F WCI  23
MORA           CLOUDY    28  23  80 N6        29.56F WCI  22
CAMBRIDGE      CLOUDY    32  28  86 NW5       29.52F WCI  27
RUSH CITY      CLOUDY    29  26  88 N9        29.54S WCI  21
MOOSE LAKE     CLOUDY    27  21  80 N10       29.53F WCI  17
HINCKLEY       CLOUDY    28  27  93 N9        29.54F WCI  20
CLOQUET        CLOUDY    23  21  93 N9        29.54F WCI  13
MCGREGOR       CLOUDY    27  23  86 N7        29.56F WCI  19
$$
MNZ071>073-080-081-089-090-097-098-271200-
   Southwest Minnesota

CITY           SKY/WX    TMP DP  RH WIND       PRES   REMARKS
MONTEVIDEO     CLOUDY    28  28 100 N13G18    29.61S WCI  18
GRANITE FALLS  CLOUDY    31  28  90 NW16      29.62S WCI  20
CANBY          CLOUDY    30  25  81 W17G25    29.64S WCI  18
MARSHALL       CLOUDY    28  25  88 NW15G23   29.62R WCI  16
REDWOOD FALLS  CLOUDY    31  28  89 NW12      29.58F WCI  22
OLIVIA         FLURRIES  32  30  93 NW13G20   29.57S WCI  22
PIPESTONE      CLOUDY    28  21  74 N13G28    29.60S WCI  18
WINDOM         CLOUDY    30  28  93 NW14      29.59S WCI  20
WORTHINGTON    CLOUDY    28  24  85 NW14      29.61S WCI  17
JACKSON        CLOUDY    30  28  93 NW15G24   29.59S WCI  19
TRACY          CLOUDY    30  28  90 NW17G23   29.60S WCI  18
SLAYTON        CLOUDY    28  25  89 NW17      29.60S WCI  15
$$
MNZ065>067-074>077-082>085-091>093-271200-
   South Central Minnesota

CITY           SKY/WX    TMP DP  RH WIND       PRES   REMARKS
MANKATO        FLURRIES  31  30  96 NW13      29.56R WCI  21
NEW ULM        CLOUDY    30  30 100 NW17      29.56F WCI  18
ST JAMES       CLOUDY    30  30 100 W17       29.58F FOG     WCI  18
FAIRMONT       CLOUDY    30  29  96 NW20      29.57F WCI  17
GLENCOE        LGT SNOW  32  32 100 NW9       29.55S WCI  24
FARIBAULT      LGT SNOW  34  30  86 NW7       29.52F WCI  28
OWATONNA       LGT SNOW  34  30  86 NW12      29.52S WCI  25
WASECA         LGT SNOW  32  32 100 NW14      29.55S WCI  22
ALBERT LEA     FLURRIES  30  30 100 NW9G18    29.52S WCI  22
$$
MNZ078>079-086>088-094>096-271200-
   Southeast Minnesota

CITY           SKY/WX    TMP DP  RH WIND       PRES   REMARKS
ROCHESTER      LGT RAIN  33  32  96 N13       29.48S WCI  24
RED WING       CLOUDY    36  28  75 N7        29.50S
STANTON        CLOUDY    35  32  88 NW7       29.50F FOG     WCI  30
DODGE CENTER   CLOUDY    34  32  93 NW14      29.49S WCI  24
WINONA         CLOUDY    36  32  87 NW10      29.48R
AUSTIN         CLOUDY    34  30  86 NW13      29.50S WCI  25
PRESTON        CLOUDY    33  31  91 NW12      29.48S WCI  25
$$
ABBREVIATIONS USED IN REMARKS
   TC - TEMPERATURES IN CELSIUS
  WCI - WIND CHILL INDEX
   HX - HEAT INDEX
  VSB - VISIBILITY
$$




USA.gov is the U.S. government's official web portal to all federal, state and local government web resources and services.